Location: Wingville
(42.9917°N, 90.4915°W)
Time: 22:15:16
(UTC+00:00)

ISS - Visible Passes

Search period start: 28 January 2022 00:00
Search period end: 07 February 2022 00:00
Orbit: 413 x 422 km, 51.6° (Epoch: 28 January)

Date Brightness Start Highest point End Pass type
(mag) Time Alt. Az. Time Alt. Az. Time Alt. Az.
28 Jan -1.8 00:16:30 10° NW 00:18:54 18° N 00:20:13 15° NNE visible
29 Jan -1.8 01:05:23 10° NW 01:07:05 20° NNW 01:07:05 20° NNW visible
30 Jan -2.1 00:17:18 10° NW 00:19:54 21° N 00:21:03 17° NE visible
30 Jan -0.4 01:53:51 10° NW 01:53:59 11° NW 01:53:59 11° NW visible
31 Jan -2.4 01:05:48 10° NW 01:08:00 31° NNW 01:08:00 31° NNW visible
01 Feb -2.7 00:17:45 10° NW 00:20:45 30° NNE 00:22:05 22° ENE visible
01 Feb -0.6 01:54:24 10° WNW 01:55:02 14° WNW 01:55:02 14° WNW visible
02 Feb -3.6 01:06:13 10° WNW 01:09:13 70° WNW 01:09:13 70° WNW visible
03 Feb -3.7 00:18:05 10° NW 00:21:24 58° NNE 00:23:32 20° ESE visible
03 Feb -0.7 01:55:27 10° W 01:56:30 15° WSW 01:56:30 15° WSW visible
04 Feb -2.1 01:06:52 10° WNW 01:09:52 31° SW 01:11:00 24° S visible
05 Feb -3.1 00:18:31 10° WNW 00:21:46 54° SW 00:25:02 10° SE visible
06 Feb -0.6 01:08:37 10° WSW 01:09:54 12° SW 01:11:11 10° SSW visible
